Pittsfield, MA

10:06 PM EDT on June 26, 2017 (GMT -0400)
Pittsfield Municipal

Weather History for KPSF - April, 2014

Change the Weather History Date:

Sunday, April 13, 2014

  Actual Average Record
Temperature  
Mean Temperature 55 °F 43 °F  
Max Temperature 74 °F 54 °F 82 °F (1945)
Min Temperature 36 °F 33 °F 18 °F (1967)
Degree Days  
Heating Degree Days 10 22  
Month to date heating degree days 278 318  
Since 1 July heating degree days 7061 6725  
Cooling Degree Days 0 0  
Month to date cooling degree days 0 0  
Year to date cooling degree days 0 0  
Growing Degree Days 5 (Base 50)    
Moisture  
Dew Point 43 °F    
Average Humidity 62    
Maximum Humidity 85    
Minimum Humidity 38    
Precipitation  
Precipitation 0.01 in 0.13 in 1.05 in (2004)
Month to date precipitation 0.53 2.04  
Year to date precipitation 10.04 11.01  
Sea Level Pressure  
Sea Level Pressure 30.02 in    
Wind  
Wind Speed 10 mph (South)    
Max Wind Speed 23 mph    
Max Gust Speed 35 mph    
Visibility 10 miles    
Events Rain    
T = Trace of Precipitation, MM = Missing Value Source: NWS Daily Summary

Daily Weather History Graph

Daily Weather History Graph

Search for Another Location

Airport or City:

Trip Planner

Search our weather history database for the weather conditions in past years. The results will help you decide how hot, cold, wet, or windy it might be!

Date:

Astronomy

Apr. 13, 2014 Rise Set
Actual Time 6:15 AM EDT 7:32 PM EDT
Civil Twilight 5:46 AM EDT 8:01 PM EDT
Nautical Twilight 5:11 AM EDT 8:36 PM EDT
Astronomical Twilight 4:34 AM EDT 9:13 PM EDT
Moon 6:06 PM EDT (4/13) 5:14 AM EDT (4/13)
Length of Visible Light 14h 15m
Length of Day
13h 17m
Waxing Gibbous, 97% of the Moon is Illuminated
Apr 13
Waxing Gibbous
Apr 15
Full
Apr 22
Last Quarter
Apr 29
New
May 6
First Quarter

Hourly Weather History & Observations

Time (EDT) Temp. Windchill Dew Point Humidity Pressure Visibility Wind Dir Wind Speed Gust Speed Precip Events Conditions
12:54 AM 39.9 °F - 34.0 °F 79% 30.16 in 10.0 mi Calm Calm - N/A   Clear
1:54 AM 42.1 °F - 34.0 °F 73% 30.15 in 10.0 mi Calm Calm - N/A   Mostly Cloudy
2:54 AM 37.0 °F - 32.0 °F 82% 30.15 in 9.0 mi Calm Calm - N/A   Scattered Clouds
3:54 AM 37.0 °F - 33.1 °F 86% 30.14 in 10.0 mi Calm Calm - N/A   Clear
4:54 AM 37.9 °F 35.5 °F 34.0 °F 86% 30.11 in 10.0 mi NE 3.5 mph - N/A   Partly Cloudy
5:54 AM 41.0 °F 39.0 °F 34.0 °F 76% 30.10 in 10.0 mi Variable 3.5 mph - N/A   Overcast
6:54 AM 50.0 °F - 30.0 °F 46% 30.09 in 10.0 mi South 15.0 mph 21.9 mph 0.00 in Rain Light Rain
7:54 AM 53.1 °F - 27.0 °F 37% 30.09 in 10.0 mi South 11.5 mph 26.5 mph 0.00 in   Overcast
8:54 AM 55.0 °F - 30.0 °F 38% 30.08 in 10.0 mi South 16.1 mph 31.1 mph N/A   Overcast
9:54 AM 55.9 °F - 45.0 °F 67% 30.07 in 10.0 mi South 17.3 mph 29.9 mph 0.01 in   Mostly Cloudy
10:54 AM 59.0 °F - 51.1 °F 75% 30.05 in 9.0 mi South 12.7 mph 32.2 mph N/A   Overcast
11:54 AM 63.0 °F - 50.0 °F 63% 30.05 in 10.0 mi South 11.5 mph 24.2 mph N/A   Overcast
12:54 PM 64.0 °F - 48.9 °F 58% 30.03 in 10.0 mi SE 9.2 mph 20.7 mph N/A   Mostly Cloudy
1:54 PM 64.9 °F - 48.9 °F 56% 30.01 in 10.0 mi SW 10.4 mph 21.9 mph N/A   Overcast
2:54 PM 69.1 °F - 48.9 °F 49% 29.96 in 10.0 mi South 15.0 mph 24.2 mph N/A   Clear
3:54 PM 71.1 °F - 48.9 °F 45% 29.94 in 10.0 mi SSW 12.7 mph 21.9 mph N/A   Clear
4:54 PM 73.0 °F - 48.9 °F 42% 29.91 in 10.0 mi South 15.0 mph 23.0 mph N/A   Clear
5:54 PM 73.0 °F - 48.9 °F 42% 29.90 in 10.0 mi SSW 11.5 mph 25.3 mph N/A   Clear
6:54 PM 71.1 °F - 48.9 °F 45% 29.89 in 10.0 mi SSW 10.4 mph 16.1 mph N/A   Clear
7:54 PM 68.0 °F - 48.9 °F 50% 29.89 in 10.0 mi South 13.8 mph 21.9 mph N/A   Clear
8:54 PM 66.0 °F - 48.9 °F 54% 29.91 in 10.0 mi South 13.8 mph - N/A   Clear
9:54 PM 64.9 °F - 50.0 °F 58% 29.92 in 10.0 mi South 12.7 mph 23.0 mph N/A   Clear
10:54 PM 64.0 °F - 50.0 °F 60% 29.91 in 10.0 mi South 10.4 mph 20.7 mph N/A   Clear
11:54 PM 64.0 °F - 50.0 °F 60% 29.90 in 10.0 mi South 9.2 mph - N/A   Clear